Crossville, TN

3:10 PM CDT on August 28, 2016 (GMT -0500)
Crossville Memorial-Whitson

Weather History for KCSV - May, 2014

Change the Weather History Date:

Thursday, May 29, 2014

  Actual Average Record
Temperature  
Mean Temperature 72 °F 67 °F  
Max Temperature 82 °F 77 °F 87 °F (1982)
Min Temperature 61 °F 56 °F 41 °F (1984)
Degree Days  
Heating Degree Days 0    
Month to date heating degree days 92  
Since 1 July heating degree days 4486  
Cooling Degree Days 7    
Month to date cooling degree days 94  
Year to date cooling degree days 105  
Growing Degree Days 20 (Base 50)    
Moisture  
Dew Point 62 °F    
Average Humidity 74    
Maximum Humidity 97    
Minimum Humidity 51    
Precipitation  
Precipitation 0.00 in 0.18 in 1.43 in (1955)
Month to date precipitation 2.55 5.01  
Year to date precipitation 17.20 24.03  
Sea Level Pressure  
Sea Level Pressure 30.05 in    
Wind  
Wind Speed 2 mph (ENE)    
Max Wind Speed 17 mph    
Max Gust Speed 24 mph    
Visibility 7 miles    
Events Thunderstorm    
T = Trace of Precipitation, MM = Missing Value Source: NWS Daily Summary

Daily Weather History Graph

Daily Weather History Graph

Search for Another Location

Airport or City:

Trip Planner

Search our weather history database for the weather conditions in past years. The results will help you decide how hot, cold, wet, or windy it might be!

Date:

Astronomy

May. 29, 2014 Rise Set
Actual Time 5:26 AM CDT 7:49 PM CDT
Civil Twilight 4:56 AM CDT 8:19 PM CDT
Nautical Twilight 4:20 AM CDT 8:55 PM CDT
Astronomical Twilight 3:40 AM CDT 9:35 PM CDT
Moon 6:17 AM CDT (5/29) 8:40 PM CDT (5/29)
Length of Visible Light 15h 22m
Length of Day
14h 23m
New Moon, 1% of the Moon is Illuminated
May 29
New Moon
Jun 5
First Quarter
Jun 12
Full
Jun 19
Last Quarter
Jun 27
New

Hourly Weather History & Observations

Time (CDT) Temp. Heat Index Dew Point Humidity Pressure Visibility Wind Dir Wind Speed Gust Speed Precip Events Conditions
12:49 AM 62.6 °F - 60.8 °F 94% 30.08 in 2.5 mi Calm Calm - N/A   Clear
1:01 AM 63.0 °F - 60.1 °F 90% 30.08 in 3.0 mi Calm Calm - N/A   Clear
1:12 AM 64.0 °F - 61.0 °F 90% 30.08 in 1.5 mi Calm Calm - N/A   Clear
1:23 AM 64.0 °F - 61.0 °F 90% 30.07 in 3.0 mi Calm Calm - N/A   Clear
1:30 AM 63.0 °F - 60.1 °F 90% 30.07 in 1.5 mi Calm Calm - N/A   Clear
1:42 AM 63.0 °F - 60.1 °F 90% 30.07 in 3.0 mi Calm Calm - N/A   Clear
1:53 AM 63.0 °F - 60.1 °F 90% 30.01 in 2.5 mi Calm Calm - N/A   Clear
2:04 AM 62.1 °F - 59.0 °F 90% 30.06 in 4.0 mi Calm Calm - N/A   Clear
2:16 AM 62.1 °F - 60.1 °F 93% 30.05 in 2.0 mi Calm Calm - N/A   Clear
2:27 AM 62.1 °F - 59.0 °F 90% 30.05 in 3.0 mi Calm Calm - N/A   Clear
3:00 AM 62.1 °F - 59.0 °F 90% 30.05 in 1.2 mi Calm Calm - N/A   Clear
3:10 AM 61.0 °F - 59.0 °F 93% 30.05 in 3.0 mi Calm Calm - N/A   Clear
3:17 AM 62.1 °F - 59.0 °F 90% 30.05 in 2.5 mi Calm Calm - N/A   Clear
3:51 AM 62.6 °F - 59.0 °F 88% 30.05 in 1.8 mi Calm Calm - N/A   Clear
3:53 AM 61.0 °F - 59.0 °F 93% 29.99 in 1.8 mi Calm Calm - N/A   Clear
4:53 AM 63.0 °F - 60.1 °F 90% 30.00 in 4.0 mi Calm Calm - N/A   Clear
4:56 AM 62.1 °F - 59.0 °F 90% 30.06 in 1.8 mi Calm Calm - N/A   Clear
5:09 AM 62.1 °F - 59.0 °F 90% 30.06 in 3.0 mi Calm Calm - N/A   Clear
5:53 AM 62.1 °F - 57.9 °F 86% 30.02 in 7.0 mi Calm Calm - N/A   Clear
6:53 AM 64.9 °F - 61.0 °F 87% 30.04 in 6.0 mi Calm Calm - N/A   Clear
7:53 AM 68.0 °F - 62.1 °F 81% 30.06 in 10.0 mi Calm Calm - N/A   Clear
8:53 AM 72.0 °F - 63.0 °F 73% 30.07 in 10.0 mi ESE 4.6 mph - N/A   Mostly Cloudy
9:53 AM 75.0 °F - 64.0 °F 69% 30.07 in 10.0 mi Calm Calm - N/A   Mostly Cloudy
10:53 AM 75.9 °F - 64.0 °F 67% 30.07 in 10.0 mi South 6.9 mph - N/A   Partly Cloudy
11:53 AM 79.0 °F - 64.0 °F 60% 30.06 in 10.0 mi Variable 5.8 mph - N/A   Scattered Clouds
12:53 PM 78.1 °F - 62.1 °F 58% 30.05 in 10.0 mi Variable 4.6 mph - N/A   Scattered Clouds
1:53 PM 80.1 °F 81.7 °F 64.0 °F 58% 30.04 in 10.0 mi Variable 3.5 mph - N/A   Partly Cloudy
2:53 PM 80.1 °F 80.9 °F 60.1 °F 50% 30.02 in 10.0 mi Variable 3.5 mph - N/A   Scattered Clouds
3:53 PM 77.0 °F - 64.0 °F 64% 30.01 in 10.0 mi WNW 6.9 mph - N/A   Clear
4:06 PM 77.0 °F - 63.0 °F 62% 30.06 in 10.0 mi WNW 4.6 mph - N/A Thunderstorm Clear
4:34 PM 78.1 °F - 64.9 °F 64% 30.06 in 10.0 mi WNW 5.8 mph - N/A   Clear
4:51 PM 77.0 °F - 64.4 °F 65% 30.06 in 10.0 mi NNE 11.5 mph - N/A Thunderstorm Mostly Cloudy
5:13 PM 75.0 °F - 64.0 °F 69% 30.07 in 10.0 mi ENE 13.8 mph - N/A Thunderstorm Thunderstorm
5:23 PM 72.0 °F - 62.1 °F 71% 30.09 in 10.0 mi East 10.4 mph 24.2 mph N/A Thunderstorm Thunderstorm
5:31 PM 71.1 °F - 62.1 °F 73% 30.08 in 10.0 mi NE 13.8 mph 23.0 mph N/A Thunderstorm Thunderstorm
5:53 PM 71.1 °F - 60.1 °F 68% 30.02 in 10.0 mi East 4.6 mph - N/A Thunderstorm Thunderstorm
6:04 PM 71.1 °F - 61.0 °F 70% 30.07 in 10.0 mi ENE 5.8 mph - N/A   Scattered Clouds
6:53 PM 70.0 °F - 63.0 °F 78% 30.03 in 10.0 mi Calm Calm - N/A   Clear
7:38 PM 69.1 °F - 64.9 °F 87% 30.10 in 10.0 mi ESE 4.6 mph - N/A Thunderstorm Partly Cloudy
7:53 PM 69.1 °F - 64.0 °F 84% 30.05 in 10.0 mi Calm Calm - N/A   Partly Cloudy
8:53 PM 69.1 °F - 64.0 °F 84% 30.04 in 10.0 mi Calm Calm - N/A   Clear
9:53 PM 68.0 °F - 64.0 °F 87% 30.05 in 10.0 mi Calm Calm - N/A   Clear
10:53 PM 66.9 °F - 63.0 °F 87% 30.06 in 10.0 mi Calm Calm - N/A   Clear
11:53 PM 66.0 °F - 62.1 °F 87% 30.05 in 10.0 mi Calm Calm - N/A   Clear